Regional Weather Roundup
Issued by NWS

Home | Current Version | Previous Version | Graphics & Text | Print | Product List | Glossary Off
Versions: 1 2 3 4 5 6 7 8 9 10 11 12 13 14 15 16 17 18 19 20 21 22 23 24 25 26 27 28 29 30 31 32 33 34 35 36 37 38 39 40 41 42 43 44 45 46 47 48 49 50

267
ASUS43 KTOP 210708
RWRKS

WEATHER ROUNDUP FOR KANSAS
NATIONAL WEATHER SERVICE GOODLAND KS
200 AM CDT SAT APR 21 2018

NOTE:  "FAIR" INDICATES FEW OR NO CLOUDS BELOW 12,000 FEET WITH NO
SIGNIFICANT WEATHER AND/OR OBSTRUCTIONS TO VISIBILITY.

KSZ001>006-013>018-027>032-041>047-210800-
NORTHWEST KANSAS

CITY           SKY/WX    TMP DP  RH WIND       PRES   REMARKS
GOODLAND       LGT RAIN  40  39  97 SE15G25   30.13R WCI  32
HAYS           LGT RAIN  43  42  97 E14       30.20F
HILL CITY      CLOUDY    43  42  97 E12       30.21F
RUSSELL        LGT RAIN  44  44 100 NE10      30.18F
$$

KSZ061>065-074>080-084>089-210800-
SOUTHWEST KANSAS

CITY           SKY/WX    TMP DP  RH WIND       PRES   REMARKS
DODGE CITY     LGT RAIN  43  40  89 E16       30.11F
ELKHART        CLOUDY    45  44  97 E9        30.06S
GREAT BEND     LGT RAIN  46  43  89 E9        30.20R
LIBERAL        CLOUDY    44  42  93 E23G30    30.04R
PRATT          LGT RAIN  46  42  85 NE3       30.17R
$$

KSZ066>073-081>083-090>101-210800-
SOUTHEAST KANSAS

CITY           SKY/WX    TMP DP  RH WIND       PRES   REMARKS
CHANUTE        CLOUDY    55  28  35 E8        30.24R
COFFEYVILLE    CLOUDY    52  35  52 N3        30.24R
HUTCHINSON     RAIN      49  43  80 E7        30.17F
MEDICINE LODGE   N/A     49  43  80 E8        30.14R
NEWTON         CLOUDY    52  33  48 E10       30.18F
PARSONS        CLOUDY    53  31  42 NE3       30.25R
WICHITA INTL   LGT RAIN  54  37  52 E13G23    30.14F
WICHITA JABRA  CLOUDY    54  33  45 E13       30.15F
WICHITA MCCONL LGT RAIN  54  34  47 E13       30.13
WINFIELD       LGT RAIN  53  41  63 E12       30.16F
$$

KSZ007>012-019>026-033>040-048>060-102>105-210800-
NORTHEAST KANSAS

CITY           SKY/WX    TMP DP  RH WIND       PRES   REMARKS
CONCORDIA      LGT RAIN  46  39  76 E5        30.26R
EMPORIA        CLOUDY    52  30  43 E9G21     30.20F
LAWRENCE       CLOUDY    53  25  33 E12       30.26S
MANHATTAN      CLOUDY    54  26  34 NE14      30.21F
MARYSVILLE     CLOUDY    52  27  37 E13       30.25F
OLATHE IND     CLOUDY    54  23  30 E8        30.27R
OLATHE EXE     CLOUDY    52  23  32 E7        30.26R
SALINA         LGT RAIN  52  38  58 E7        30.22S
TOPEKA BILLARD CLOUDY    54  26  34 E10       30.25S
TOPEKA FORBES  CLOUDY    54  26  34 E6        30.24R
$$




USA.gov is the U.S. government's official web portal to all federal, state and local government web resources and services.